Location: C�mpuri de-Sus
(45.9500°N, 22.5500°E)
Time: 19:52:53
(UTC+00:00)

Cosmos 839 Rocket - Pass Details

Date: 09 December 2023
Orbit: 960 x 2093 km, 65.9° (Epoch: 20 February)

Event Time Altitude Azimuth Distance (km) Brightness Sun altitude
Exits shadow 23:31:15 23° 59° (ENE) 3,599 7.0 -63.0°
Drops below altitude 10° 23:35:22 10° 44° (NE) 4,490 7.7 -62.6°
Sets 23:38:59 0° 37° (NE) 5,407 8.3 -62.2°
